Home > Time Zones > World Clock > Weather > Qatar > Doha > Past weeks

Flag for Qatar Weather past 2 weeks in Doha, Qatar

Now
93 °F

Passing clouds.


Feels Like: 90 °F
Forecast: 91 / 106 °F
Wind: 6 mph from Southwest

Location: Doha International Airport

Current Time: Jun 30, 2015 at 3:09:49 AM

Latest Report: Jun 30, 2015 at 2:00 AM


Visibility: N/A

Pressure: 29.56 "Hg

Humidity: 20%

Dew point: 46 °F

Location of DohaLocation

Historic Weather in Doha — Graph

°F

Doha temperature yesterday

Maximum temperature yesterday: 108 °F (at 11:00 AM)
Minimum temperature yesterday: 88 °F (at 5:00 AM)
Average temperature yesterday: 98 °F

Past Weeks' High & Low Weather Summary

 TemperatureHumidityPressure
High109 °F (Jun 18, 10:00 AM)58% (Jun 15, 2:00 AM)29.65 "Hg (Jun 15, 2:00 AM)
Low81 °F (Jun 26, 7:00 PM)7% (Jun 25, 3:00 PM)29.42 "Hg (Jun 17, 1:00 AM)
Average99 °F24%29.50 "Hg
* Reported Jun 15 2:00 AM — Jun 30 2:00 AM, Doha, Weather by CustomWeather, © 2015

Note: Actual official high and low records may vary slightly from our data, if they occured in-between our weather recording intervals... More about our weather records

Advertising

Doha weather history for previous 24 hours

 ConditionsComfort  
Time TempWeatherWind HumidityBarometerVisibility
2:00 AM
Tue, Jun 30
93 °FPassing clouds.6 mph20%29.56 "HgN/A
1:00 AM95 °FPassing clouds.5 mph18%29.59 "HgN/A
12:00 AM95 °FPassing clouds.6 mph20%29.59 "HgN/A
11:00 PM
Mon, Jun 29
97 °FClear.7 mph19%29.59 "Hg10 mi
10:00 PM99 °FClear.3 mph27%29.62 "Hg10 mi
7:00 PM97 °FClear.5 mph28%29.62 "Hg10 mi
6:00 PM99 °FSunny.8 mph29%29.62 "Hg10 mi
5:00 PM99 °FSunny.9 mph33%29.59 "Hg10 mi
4:00 PM102 °FSunny.13 mph26%29.59 "Hg10 mi
3:00 PM104 °FPassing clouds.14 mph24%29.62 "HgN/A
2:00 PM106 °FSunny.14 mph19%29.62 "Hg10 mi
1:00 PM106 °FSunny.14 mph19%29.62 "Hg10 mi
12:00 PM108 °FSunny.15 mph16%29.62 "Hg10 mi
11:00 AM108 °FPassing clouds.14 mph12%29.65 "HgN/A
10:00 AM106 °FPassing clouds.9 mph14%29.65 "HgN/A
9:00 AM102 °FPassing clouds.8 mph17%29.65 "HgN/A
8:00 AM99 °FSunny.7 mph21%29.65 "Hg10 mi
7:00 AM93 °FPassing clouds.9 mph26%29.65 "HgN/A
6:00 AM90 °FPassing clouds.8 mph36%29.62 "HgN/A
5:00 AM88 °FClear.9 mph40%29.62 "Hg6 mi
4:00 AM90 °FClear.10 mph36%29.59 "Hg6 mi
3:00 AM90 °FClear.10 mph41%29.59 "Hg6 mi
Weather by CustomWeather, © 2015

See weather overviewHow to use our weather pages